Tracking 27420 objects as of 28-May-2023
HD Live streaming from Space Station
objects crossing your sky now

STARLINK-6079

Track STARLINK-6079 now!
10-day predictions
STARLINK-6079 is classified as:


NORAD ID: 56120
Int'l Code: 2023-046AD
Perigee: 474.1 km
Apogee: 476.1 km
Inclination: 43.0 °
Period: 94.0 minutes
Semi major axis: 6846 km
RCS: Unknown
Launch date: March 29, 2023
Source: United States (US)
Launch site: AIR FORCE EASTERN TEST RANGE (AFETR)
Your satellite tracking list
Your tracking list is empty




NASA's NSSDC Master Catalog

Two Line Element Set (TLE):
1 56120U 23046AD  23148.25001157 -.00856905  00000-0 -28886-1 0  9996
2 56120  42.9991 271.8063 0001439 267.9696 334.6560 15.32635779  9823
Source of the keplerian elements: AFSPC